Stations météo

réclame
Mon MeteoGroup
Angelholm, Suède (2607): Température de l'air & dewpoint: 13.12.2018 15:00:00 - 19.12.2018 15:00:00 (CET)Angelholm, Suède (2607): Vitesse du vent: 13.12.2018 15:00:00 - 19.12.2018 15:00:00 (CET)Angelholm, Suède (2607): Direction du vent: 13.12.2018 15:00:00 - 19.12.2018 15:00:00 (CET)Angelholm, Suède (2607): reduced air pressure: 13.12.2018 15:00:00 - 19.12.2018 15:00:00 (CET)Angelholm, Suède (2607): visibility: 13.12.2018 15:00:00 - 19.12.2018 15:00:00 (CET)
Date & Time tt [°C] td [°C] ff [km/h] ff [knt] dd ppp [hPa] vv [km]
19.12.2018 15:00:00 - - - - - - -
19.12.2018 14:00:00 4,0 1,2 28 15 SE 1015,1 10
19.12.2018 13:00:00 4,2 1,6 29 16 SE 1015,5 10
19.12.2018 12:00:00 4,5 2,0 29 16 SE 1016,3 10
19.12.2018 11:00:00 4,3 1,8 31 17 ESE 1016,8 10
19.12.2018 10:00:00 4,1 1,8 31 17 ESE 1017,7 10
19.12.2018 09:00:00 4,0 2,0 29 16 ESE 1017,8 10
19.12.2018 08:00:00 3,9 1,9 29 16 ESE 1018,0 10
19.12.2018 07:00:00 3,8 2,2 26 14 ESE 1018,5 10
19.12.2018 06:00:00 3,7 2,5 26 14 SE 1019,4 6
19.12.2018 05:00:00 3,5 2,6 24 13 SE 1020,0 3,2
19.12.2018 04:00:00 3,4 3,1 24 13 SE 1020,3 3,0
19.12.2018 03:00:00 3,1 2,8 22 12 ESE 1020,8 1,3
19.12.2018 02:00:00 2,9 2,5 22 12 ESE 1021,3 1,6
19.12.2018 01:00:00 2,7 1,8 22 12 ESE 1021,7 4,8
19.12.2018 00:00:00 2,6 1,7 24 13 ESE 1022,0 4,9
18.12.2018 23:00:00 2,3 1,4 18 10 ESE 1022,8 5
18.12.2018 22:00:00 2,2 1,0 18 10 ESE 1023,1 7
18.12.2018 21:00:00 2,0 0,8 16 9 ESE 1023,4 7
18.12.2018 20:00:00 1,8 0,3 22 12 ESE 1023,5 8
18.12.2018 19:00:00 1,8 0,6 21 11 ESE 1023,5 7
18.12.2018 18:00:00 1,8 0,9 16 9 ESE 1023,9 4,5
18.12.2018 17:00:00 1,7 0,8 21 11 SE 1023,9 3,3
18.12.2018 16:00:00 1,6 0,4 18 10 ESE 1023,8 5
18.12.2018 15:00:00 1,5 0,3 18 10 ESE 1023,7 6
18.12.2018 14:00:00 1,4 -0,1 16 9 ESE 1024,3 6
18.12.2018 13:00:00 1,2 -0,3 18 10 ESE 1024,5 6
18.12.2018 12:00:00 1,0 -0,6 15 8 ESE 1024,9 6
18.12.2018 11:00:00 0,6 -1,0 11 6 ESE 1025,1 7
18.12.2018 10:00:00 0,2 -1,2 9 5 ESE 1025,3 8
18.12.2018 09:00:00 -1,7 -2,5 11 6 ESE 1025,2 6
18.12.2018 08:00:00 -2,6 -3,4 5 3 SE 1025,4 5
18.12.2018 07:00:00 -1,5 -2,6 13 7 E 1025,1 7
18.12.2018 06:00:00 -0,4 -1,8 8 4 ESE 1025,2 8
18.12.2018 05:00:00 -0,1 -1,5 9 5 ESE 1024,9 9
18.12.2018 04:00:00 0,0 -1,9 11 6 ESE 1024,7 9
18.12.2018 03:00:00 0,0 -2,0 9 5 E 1024,8 8
18.12.2018 02:00:00 -0,3 -1,7 9 5 E 1024,7 7
18.12.2018 01:00:00 -0,4 -1,8 9 5 E 1024,5 7
18.12.2018 00:00:00 -0,6 -1,7 5 3 E 1024,6 8
17.12.2018 23:00:00 -0,7 -2,1 8 4 E 1024,6 8
17.12.2018 22:00:00 -0,8 -2,2 5 3 E 1024,5 8
17.12.2018 21:00:00 -0,7 -2,1 5 3 ENE 1024,3 10
17.12.2018 20:00:00 -0,3 -2,0 5 3 E 1023,9 10
17.12.2018 19:00:00 -0,3 -2,0 9 5 E 1023,3 10
17.12.2018 18:00:00 -0,2 -2,0 11 6 ESE 1022,8 10
17.12.2018 17:00:00 -0,2 -1,9 9 5 ESE 1022,5 10
17.12.2018 16:00:00 -0,2 -1,9 5 3 E 1022,1 10
17.12.2018 15:00:00 -0,1 -1,8 5 3 E 1021,6 10
17.12.2018 14:00:00 0,0 -1,9 4 2 E 1021,0 10
17.12.2018 13:00:00 0,0 -1,9 5 3 E 1020,6 10
17.12.2018 12:00:00 -0,1 -1,8 0 0 N 1020,5 10
17.12.2018 11:00:00 -0,2 -2,3 0 0 N 1020,5 10
17.12.2018 10:00:00 -0,5 -1,9 5 3 E 1020,1 10
17.12.2018 09:00:00 -0,8 -1,9 5 3 NE 1019,5 10
17.12.2018 08:00:00 -0,7 -1,8 4 2 E 1019,0 10
17.12.2018 07:00:00 -0,9 -1,8 4 2 - 1018,3 10
17.12.2018 06:00:00 -1,0 -1,8 4 2 NE 1017,6 10
17.12.2018 05:00:00 -0,8 -1,6 0 0 N 1017,3 10
17.12.2018 04:00:00 -0,8 -1,6 5 3 E 1016,9 10
17.12.2018 03:00:00 -0,6 -1,4 8 4 ESE 1016,7 10
17.12.2018 02:00:00 -0,5 -1,3 5 3 ESE 1016,5 10
17.12.2018 01:00:00 -0,5 -1,3 5 3 E 1016,2 10
17.12.2018 00:00:00 -0,4 -1,2 9 5 ESE 1016,1 10
16.12.2018 23:00:00 -0,3 -1,4 13 7 E 1015,9 10
16.12.2018 22:00:00 -0,2 -1,0 8 4 E 1015,9 10
16.12.2018 21:00:00 -0,3 -1,0 8 4 E 1015,7 9
16.12.2018 20:00:00 -0,6 -1,4 9 5 E 1015,7 10
16.12.2018 19:00:00 0,2 -0,9 9 5 E 1015,8 10
16.12.2018 18:00:00 0,2 -0,9 11 6 E 1015,9 10
16.12.2018 17:00:00 0,0 -1,1 8 4 E 1016,0 10
16.12.2018 16:00:00 0,3 -1,1 11 6 E 1016,3 10
16.12.2018 15:00:00 0,3 -1,5 15 8 E 1016,5 10
16.12.2018 14:00:00 1,0 -1,7 13 7 E 1016,8 10
16.12.2018 13:00:00 1,9 -2,1 16 9 E 1017,9 10
16.12.2018 12:00:00 1,3 -1,9 13 7 E 1018,3 10
16.12.2018 11:00:00 1,5 -1,9 16 9 ESE 1019,2 10
16.12.2018 10:00:00 1,2 -1,5 16 9 E 1019,9 10
16.12.2018 09:00:00 1,0 -0,8 16 9 ESE 1020,3 10
16.12.2018 08:00:00 1,2 -0,9 15 8 ESE 1020,4 10
16.12.2018 07:00:00 0,7 -0,8 15 8 ESE 1020,8 10
16.12.2018 06:00:00 0,8 -0,4 15 8 E 1021,3 10
16.12.2018 05:00:00 0,8 -0,4 13 7 E 1022,1 10
16.12.2018 04:00:00 0,6 -1,0 9 5 ESE 1023,0 10
16.12.2018 03:00:00 0,7 -0,9 16 9 E 1023,9 10
16.12.2018 02:00:00 0,4 -0,7 15 8 E 1024,5 10
16.12.2018 01:00:00 1,0 -0,3 16 9 ESE 1025,0 10
16.12.2018 00:00:00 1,1 -0,1 16 9 E 1025,6 10
15.12.2018 23:00:00 1,2 0,1 16 9 E 1026,2 10
15.12.2018 22:00:00 1,1 -0,1 13 7 E 1026,9 10
15.12.2018 21:00:00 1,3 -0,2 22 12 E 1027,6 10
15.12.2018 20:00:00 1,2 -0,9 22 12 E 1028,0 10
15.12.2018 19:00:00 1,0 -1,2 26 14 E 1028,5 10
15.12.2018 18:00:00 0,8 -1,4 16 9 E 1029,1 10
15.12.2018 17:00:00 1,3 -1,1 13 7 E 1029,7 10
15.12.2018 16:00:00 0,9 -1,3 11 6 E 1030,4 10
15.12.2018 15:00:00 2,0 -1,1 21 11 E 1030,5 10
15.12.2018 14:00:00 2,1 -1,3 24 13 E 1030,9 10
15.12.2018 13:00:00 1,9 -1,4 22 12 E 1031,1 10
15.12.2018 12:00:00 2,0 -1,3 21 11 E 1031,4 10
15.12.2018 11:00:00 1,5 -1,2 18 10 E 1031,9 10
15.12.2018 10:00:00 1,2 -1,5 18 10 E 1032,0 10
15.12.2018 09:00:00 1,3 -1,3 21 11 E 1031,9 10
15.12.2018 08:00:00 1,3 -0,9 18 10 E 1031,7 10
15.12.2018 07:00:00 1,3 -0,9 16 9 E 1031,8 10
15.12.2018 06:00:00 1,5 -0,7 13 7 E 1032,0 10
15.12.2018 05:00:00 1,4 -0,5 9 5 E 1031,9 10
15.12.2018 04:00:00 1,3 -0,5 11 6 E 1031,7 10
15.12.2018 03:00:00 1,1 -0,8 13 7 E 1031,8 10
15.12.2018 02:00:00 1,0 -1,1 16 9 E 1031,6 10
15.12.2018 01:00:00 1,1 -1,1 13 7 E 1031,9 10
15.12.2018 00:00:00 1,2 -1,4 18 10 E 1031,7 10
14.12.2018 23:00:00 1,2 -1,5 21 11 E 1031,5 10
14.12.2018 22:00:00 1,3 -1,4 16 9 NE 1031,6 10
14.12.2018 21:00:00 1,4 -1,3 26 14 ENE 1031,6 10
14.12.2018 20:00:00 1,5 -1,4 18 10 ENE 1031,5 10
14.12.2018 19:00:00 1,6 -1,5 18 10 ENE 1031,4 10
14.12.2018 18:00:00 1,5 -1,2 18 10 ENE 1031,3 10
14.12.2018 17:00:00 1,6 -1,1 21 11 ENE 1031,2 10
14.12.2018 16:00:00 1,6 -1,0 15 8 ENE 1031,0 10
14.12.2018 15:00:00 1,9 -1,0 18 10 NE 1030,6 10
14.12.2018 14:00:00 2,1 -1,2 15 8 ENE 1030,5 10
14.12.2018 13:00:00 2,2 -1,2 15 8 NE 1030,4 10
14.12.2018 12:00:00 2,1 -1,3 18 10 ENE 1030,5 10
14.12.2018 11:00:00 2,0 -1,3 24 13 ENE 1030,4 10
14.12.2018 10:00:00 1,7 -1,0 16 9 ENE 1030,4 10
14.12.2018 09:00:00 1,6 -1,0 15 8 ENE 1030,0 10
14.12.2018 08:00:00 1,4 -0,5 15 8 NE 1029,7 10
14.12.2018 07:00:00 1,2 -0,6 16 9 NE 1029,3 10
14.12.2018 06:00:00 1,3 -0,6 16 9 NE 1029,2 10
14.12.2018 05:00:00 1,2 -0,9 16 9 NE 1029,2 10
14.12.2018 04:00:00 1,3 -0,7 18 10 NNE 1029,1 10
14.12.2018 03:00:00 1,1 -0,8 15 8 NE 1029,2 10
14.12.2018 02:00:00 1,0 -0,9 13 7 NE 1029,3 10
14.12.2018 01:00:00 0,9 -1,3 18 10 NE 1029,0 10
14.12.2018 00:00:00 0,9 -1,7 18 10 NE 1028,9 10
13.12.2018 23:00:00 0,6 -2,0 18 10 NE 1028,9 10
13.12.2018 22:00:00 0,4 -1,8 18 10 NE 1029,0 10
13.12.2018 21:00:00 0,4 -1,8 18 10 NNE 1028,8 10
13.12.2018 20:00:00 0,6 -2,3 21 11 NNE 1028,6 10
13.12.2018 19:00:00 0,6 -2,3 21 11 NE 1028,6 10
13.12.2018 18:00:00 -0,1 -2,5 15 8 NNE 1028,9 10
13.12.2018 17:00:00 0,3 -2,2 15 8 NNE 1029,2 10
13.12.2018 16:00:00 1,2 -2,0 13 7 NE 1029,1 10
13.12.2018 15:00:00 1,7 -1,6 15 8 NNE 1029,3 10

tt = Température de l'air
td = dewpoint
ff = Vitesse du vent
dd = Direction du vent
ppp = reduced air pressure
vv = visibility

stations d'obs. à proximité